This is the latest recevied weather packets stored in our database for station/object N7NIP. If no packets are shown the sender has not sent any weather packets the latest 10 day(s).
| Time | Temp. | Humidity | Pressure | Rain* | Wind** | Luminosity | Snow |
|---|---|---|---|---|---|---|---|
| 1777876286 | 12.78° C | 71% | 1023.8 hPa | 0 mm | - | 0 W/m² | - |
| 1777875981 | 12.78° C | 69% | 1023.7 hPa | 0 mm | - | 0 W/m² | - |
| 1777875677 | 12.78° C | 69% | 1024.1 hPa | 0 mm | - | 0 W/m² | - |
| 1777875374 | 13.33° C | 68% | 1024 hPa | 0 mm | - | 0 W/m² | - |
| 1777875071 | 13.33° C | 67% | 1023.9 hPa | 0 mm | - | 0 W/m² | - |
| 1777874768 | 13.33° C | 67% | 1024 hPa | 0 mm | - | 0 W/m² | - |
| 1777874463 | 13.33° C | 67% | 1023.9 hPa | 0 mm | - | 0 W/m² | - |
| 1777874161 | 13.33° C | 64% | 1023.8 hPa | 0 mm | - | 0 W/m² | - |
| 1777873858 | 13.33° C | 64% | 1023.9 hPa | 0 mm | - | 0 W/m² | - |
| 1777873555 | 13.33° C | 65% | 1023.9 hPa | 0 mm | - | 0 W/m² | - |
| 1777873252 | 13.33° C | 67% | 1024 hPa | 0 mm | - | 0 W/m² | - |
| 1777872949 | 13.33° C | 67% | 1023.9 hPa | 0 mm | - | 0 W/m² | - |
| 1777872646 | 13.89° C | 65% | 1024 hPa | 0 mm | - | 0 W/m² | - |
| 1777872343 | 13.89° C | 63% | 1023.9 hPa | 0 mm | - | 0 W/m² | - |
| 1777872042 | 13.89° C | 64% | 1024 hPa | 0 mm | - | 0 W/m² | - |
| 1777871738 | 13.89° C | 65% | 1024 hPa | 0 mm | - | 0 W/m² | - |
| 1777871434 | 13.89° C | 65% | 1024 hPa | 0 mm | - | 0 W/m² | - |
| 1777871131 | 13.89° C | 65% | 1023.9 hPa | 0 mm | - | 0 W/m² | - |
| 1777870828 | 13.89° C | 64% | 1024 hPa | 0 mm | - | 0 W/m² | - |
| 1777870525 | 13.89° C | 63% | 1024.1 hPa | 0 mm | - | 0 W/m² | - |
| 1777870220 | 14.44° C | 62% | 1023.9 hPa | 0 mm | - | 0 W/m² | - |
| 1777869918 | 15° C | 61% | 1024.1 hPa | 0 mm | - | 0 W/m² | - |
| 1777869615 | 15° C | 63% | 1024 hPa | 0 mm | - | 0 W/m² | - |
| 1777869312 | 15° C | 61% | 1024 hPa | 0 mm | - | 0 W/m² | - |
| 1777869009 | 15° C | 65% | 1024 hPa | 0 mm | - | 0 W/m² | - |
* Rain latest hour (hover to see other rain measurements)
** Current wind speed in m/s (hover to see current wind gust speed)